Weather History for Watsonville, CA

Change the Weather History Date:

Thursday, May 29, 2014

  Actual Average Record
Temperature  
Mean Temperature 65 °F 60 °F  
Max Temperature 82 °F 72 °F 86 °F (2002)
Min Temperature 47 °F 49 °F 43 °F (2011)
Degree Days  
Heating Degree Days 0    
Month to date heating degree days 95  
Since 1 July heating degree days 2307  
Cooling Degree Days 0    
Month to date cooling degree days 38  
Year to date cooling degree days 44  
Growing Degree Days 14 (Base 50)    
Moisture  
Dew Point 45 °F    
Average Humidity 52    
Maximum Humidity 83    
Minimum Humidity 21    
Precipitation  
Precipitation 0.00 in - 0.04 in (1988)
Month to date precipitation 0.03  
Year to date precipitation 8.17  
Since 1 July precipitation 9.24  
Sea Level Pressure  
Sea Level Pressure 29.94 in    
Wind  
Wind Speed 5 mph (SSW)    
Max Wind Speed 15 mph    
Max Gust Speed 28 mph    
Visibility 10 miles    
Events      
T = Trace of Precipitation, MM = Missing Value Source: NWS Daily Summary

Daily Weather History Graph

Daily Weather History Graph

Search for Another Location

Airport:

Trip Planner

Search our weather history database for the weather conditions in past years. The results will help you decide how hot, cold, wet, or windy it might be!

Date:

Astronomy

May. 29, 2014 Rise Set
Actual Time 5:50 AM PDT 8:19 PM PDT
Civil Twilight 5:20 AM PDT 8:49 PM PDT
Nautical Twilight 4:43 AM PDT 9:26 PM PDT
Astronomical Twilight 4:02 AM PDT 10:07 PM PDT
Moon 6:47 AM PDT (5/29) 9:15 PM PDT (5/29)
Length of Visible Light 15h 28m
Length of Day
14h 28m
New Moon, 1% of the Moon is Illuminated
May 29
New Moon
Jun 5
First Quarter
Jun 12
Full
Jun 19
Last Quarter
Jun 27
New

Hourly Weather History & Observations

Time (PDT) Temp. Dew Point Humidity Pressure Visibility Wind Dir Wind Speed Gust Speed Precip Events Conditions
1:53 AM 52.0 °F 44.1 °F 74% 29.95 in 10.0 mi NW 3.5 mph - N/A   Clear
2:53 AM 51.1 °F 43.0 °F 74% 29.94 in 10.0 mi NNW 4.6 mph - N/A   Clear
3:53 AM 48.9 °F 43.0 °F 80% 29.94 in 10.0 mi WNW 3.5 mph - N/A   Clear
4:53 AM 50.0 °F 42.1 °F 74% 29.93 in 10.0 mi Calm Calm - N/A   Clear
5:53 AM 50.0 °F 42.1 °F 74% 29.92 in 10.0 mi WNW 4.6 mph - N/A   Clear
6:53 AM 52.0 °F 43.0 °F 71% 29.93 in 10.0 mi Calm Calm - N/A   Clear
7:53 AM 60.1 °F 44.1 °F 55% 29.94 in 10.0 mi Calm Calm - N/A   Clear
8:53 AM 64.9 °F 45.0 °F 48% 29.94 in 10.0 mi Calm Calm - N/A   Clear
9:53 AM 71.1 °F 44.1 °F 38% 29.94 in 10.0 mi SE 3.5 mph - N/A   Clear
10:53 AM 75.9 °F 43.0 °F 31% 29.94 in 10.0 mi Variable 3.5 mph - N/A   Clear
11:53 AM 78.1 °F 39.9 °F 25% 29.94 in 10.0 mi SW 8.1 mph - N/A   Clear
12:53 PM 77.0 °F 41.0 °F 28% 29.94 in 10.0 mi WSW 8.1 mph - N/A   Clear
3:53 PM 80.1 °F 41.0 °F 25% 29.91 in 10.0 mi WSW 8.1 mph - N/A   Clear
4:53 PM 72.0 °F 46.9 °F 41% 29.91 in 10.0 mi SSE 11.5 mph - N/A   Clear
5:53 PM 66.9 °F 48.9 °F 52% 29.92 in 10.0 mi SE 10.4 mph - N/A   Clear
6:53 PM 62.1 °F 48.9 °F 62% 29.92 in 10.0 mi SSE 8.1 mph - N/A   Clear
7:53 PM 57.0 °F 48.9 °F 74% 29.94 in 9.0 mi SSE 9.2 mph - N/A   Clear
8:53 PM 55.0 °F 48.9 °F 80% 29.94 in 10.0 mi ESE 5.8 mph - N/A   Clear
9:53 PM 54.0 °F 48.0 °F 80% 29.95 in 10.0 mi East 3.5 mph - N/A   Clear
10:53 PM 54.0 °F 48.0 °F 80% 29.95 in 10.0 mi Calm Calm - N/A   Clear
11:53 PM 53.1 °F 46.9 °F 80% 29.95 in 10.0 mi Calm Calm - N/A   Clear